Wind_Speed
27 28 28 28 29 29 27 25 25 24 24 24 24 25 25 25 25 25 24 23 22 21 21 21 21 21 21 20 20 19 19 18 18 17 17 17 16 16 15 15 15 15 14 14 14 14 14 14 13
29 29 29 30 31 30 28 27 27 26 26 26 26 26 26 26 26 27 26 25 24 24 24 24 23 23 23 22 22 21 21 20 19 19 19 18 18 18 17 17 17 17 16 16 16 16 15 15 15
31 31 31 31 31 30 29 29 29 28 28 28 27 28 28 27 27 28 27 27 26 26 26 26 26 25 24 24 23 23 22 22 21 20 20 20 20 20 20 19 19 19 18 18 18 18 17 17 17
32 32 33 33 32 30 30 30 30 31 31 30 29 29 29 28 28 28 29 28 28 28 28 28 27 27 26 26 25 25 24 24 23 22 22 22 22 22 22 21 21 21 21 20 20 20 19 19 19
33 33 34 34 32 31 32 32 32 33 33 32 31 31 30 30 29 29 30 29 29 29 29 29 28 28 27 27 27 26 27 26 26 25 25 25 25 24 24 24 23 23 23 23 23 22 22 22 21
33 34 35 34 33 33 33 33 33 34 34 33 33 32 31 31 31 31 31 31 31 30 30 30 30 29 29 28 28 28 28 28 28 28 27 27 26 26 26 26 26 25 25 25 25 24 24 24 24
34 34 34 34 34 34 34 34 35 34 35 34 34 34 33 32 32 33 33 33 33 32 32 32 32 31 31 31 31 31 30 30 30 29 29 29 28 28 28 27 27 27 27 26 26 27 26 26 26
33 34 34 34 34 35 34 34 34 35 36 35 35 35 35 34 34 34 35 35 34 34 33 33 34 34 33 33 32 32 32 32 31 31 31 31 31 30 30 30 29 29 28 28 29 29 28 28 28
32 34 34 34 34 34 34 35 35 36 36 36 36 36 36 36 35 36 36 36 35 35 34 34 35 35 35 35 34 34 34 34 33 33 33 33 33 33 33 32 32 31 31 31 31 31 31 30 30
32 33 33 33 34 35 35 36 36 37 37 37 37 37 37 37 37 37 37 37 36 35 35 35 35 35 36 36 36 36 36 35 35 34 34 34 34 34 34 34 33 33 33 33 33 33 33 33 32
31 32 32 33 34 36 37 37 38 39 37 37 38 38 38 38 38 38 38 38 38 37 37 37 36 36 36 36 37 37 37 37 36 35 35 34 34 34 34 35 35 35 35 34 34 34 34 34 34
32 32 33 34 35 37 38 38 38 39 38 38 39 40 39 40 40 40 39 39 39 38 38 38 38 37 37 37 37 38 38 38 37 36 36 36 35 35 35 35 36 36 36 36 36 36 36 36 36
32 33 34 35 36 37 38 39 39 39 38 39 39 40 40 40 41 41 41 40 40 40 39 40 40 39 39 39 39 39 39 39 39 38 37 37 37 37 36 37 37 37 37 38 37 37 38 38 38
32 33 34 34 35 37 38 39 39 39 39 39 39 39 40 41 41 41 41 41 41 41 41 41 41 41 40 40 41 41 41 41 41 40 39 38 38 38 38 38 38 38 38 39 39 39 39 40 40
33 34 34 34 35 37 39 38 37 37 38 38 38 38 39 40 41 42 42 42 42 42 41 42 42 42 42 42 42 43 43 43 43 42 41 41 40 40 40 40 39 39 39 39 39 40 41 42 42
32 33 34 33 34 35 37 37 36 36 37 38 38 38 38 38 39 40 41 41 42 42 41 42 43 43 44 44 44 44 44 45 44 44 43 42 41 41 41 41 41 40 40 41 41 41 42 42 43
31 32 33 32 33 35 36 36 36 36 37 37 38 38 38 38 39 39 39 40 40 41 41 41 43 44 45 45 46 46 46 46 46 46 45 44 44 43 43 42 42 42 42 42 42 43 44 44 44
31 32 33 33 33 34 36 36 36 37 37 37 38 38 38 38 38 38 39 39 40 40 40 41 42 44 45 46 46 46 46 47 47 47 47 46 45 44 44 44 44 44 44 44 45 45 46 46 47
31 32 32 33 33 34 35 36 37 38 37 37 36 37 38 38 38 38 38 39 40 40 41 41 42 44 45 45 46 46 46 46 47 47 48 48 47 46 46 46 46 46 47 47 47 48 48 48 48
30 31 31 33 33 33 35 36 36 37 37 37 37 37 38 38 38 38 39 39 40 40 41 41 42 43 44 44 45 45 45 46 46 47 48 48 48 47 47 48 48 47 47 48 48 48 48 48 48
29 30 31 31 32 32 34 34 34 36 36 37 37 37 37 38 38 38 38 39 40 40 41 41 42 43 43 44 44 44 44 45 46 46 47 48 48 49 49 48 49 49 49 49 48 47 47 47 48
28 28 29 30 31 32 32 34 31 33 34 35 36 36 36 37 37 38 38 39 40 40 41 41 41 42 44 44 44 44 43 44 44 45 46 47 48 48 48 49 49 49 49 49 48 47 47 47 47
26 27 28 30 31 32 32 34 31 32 33 33 35 35 35 35 35 36 38 39 40 40 40 41 41 42 43 43 44 44 44 44 44 44 44 46 47 48 48 48 48 49 49 48 48 48 48 48 48
26 27 28 29 30 32 30 32 32 31 32 33 33 33 34 34 34 35 37 38 39 39 39 40 41 41 41 42 42 43 43 44 44 43 43 44 45 47 48 48 49 49 49 48 48 47 47 47 47
25 25 27 28 29 30 29 31 31 30 31 31 32 32 32 32 33 34 35 36 37 38 38 38 39 39 39 41 41 42 43 43 43 43 43 43 43 44 46 47 48 48 48 48 48 47 47 47 47
24 24 25 27 28 28 28 30 30 29 30 31 31 32 32 32 32 32 34 35 36 37 37 37 37 37 38 39 40 41 41 41 41 41 42 42 42 43 44 45 46 46 46 47 46 46 46 46 45
23 23 24 25 26 27 28 29 29 28 29 29 30 31 31 32 32 32 33 34 35 36 36 36 37 37 38 39 39 39 40 41 41 41 41 41 42 42 42 43 43 44 44 45 45 44 44 43 44
22 22 23 24 25 27 27 28 28 27 27 28 29 29 29 31 32 33 33 34 34 35 35 35 36 36 37 37 38 39 39 40 40 40 40 40 40 39 41 41 42 42 43 43 43 42 42 42 43
22 22 23 24 25 26 27 27 27 27 27 27 28 28 29 30 31 31 31 31 33 33 33 33 35 35 35 35 36 36 37 39 39 39 39 39 39 39 39 40 39 40 40 41 41 41 42 42 42
23 24 24 25 26 27 28 28 27 27 27 27 27 28 29 29 29 29 29 29 30 31 31 32 32 33 33 33 34 35 36 37 37 38 38 38 38 38 39 39 38 38 38 39 39 40 41 41 42
Wind_Direction
247 247 247 247 247 247 250 251 251 250 250 251 250 251 252 251 252 254 254 253 252 252 252 252 252 252 252 253 255 254 254 251 249 249 250 251 252 253 255 256 258 261 262 264 265 266 266 266 268
246 246 247 248 248 249 250 251 251 251 251 251 252 252 254 254 254 255 255 254 253 252 253 252 252 253 252 253 253 254 253 252 249 249 249 251 252 254 255 256 258 261 263 264 265 266 266 267 267
246 246 246 247 249 250 252 252 253 252 253 253 253 253 254 254 254 255 255 255 253 252 252 252 252 252 251 251 252 252 253 252 251 250 249 250 252 254 255 256 257 259 262 264 265 266 265 266 266
247 247 246 247 248 250 251 252 254 253 253 253 253 253 254 254 254 254 255 255 254 253 253 253 252 251 251 251 252 252 252 253 253 252 252 252 253 254 255 256 257 259 261 262 263 264 264 265 266
248 247 247 248 249 249 250 251 253 254 254 254 254 254 254 254 254 254 256 256 255 254 253 252 251 250 250 251 252 252 253 253 254 254 254 254 255 255 256 257 257 257 259 261 262 263 263 265 267
248 248 248 248 248 248 248 250 251 254 255 254 254 255 254 255 255 255 256 256 255 255 254 253 251 250 250 252 252 252 252 253 253 254 255 255 255 256 256 257 258 257 258 260 262 263 264 265 267
251 249 249 249 249 249 248 249 251 252 254 253 254 255 255 255 256 256 257 256 256 255 255 253 252 251 252 253 253 252 253 254 254 255 255 255 255 256 258 258 259 259 260 260 262 263 264 266 267
252 252 250 250 250 251 250 250 251 251 252 254 255 256 255 255 256 256 256 256 256 256 255 253 252 252 252 253 253 253 254 255 256 256 256 255 256 257 258 259 260 261 261 262 262 263 264 266 267
253 253 252 252 253 253 251 250 250 252 253 255 256 257 259 257 256 257 256 256 256 257 255 254 253 253 253 253 253 253 254 256 256 256 257 258 258 257 258 258 260 261 262 263 263 263 263 265 266
253 255 255 254 254 254 253 251 251 251 253 255 257 258 259 258 257 257 256 256 256 257 256 254 254 254 254 254 253 254 255 256 256 257 258 259 259 258 258 259 259 260 262 263 263 264 264 265 266
254 255 255 254 253 253 253 253 253 254 254 255 257 257 257 257 257 257 257 256 256 256 256 255 254 255 255 254 254 254 255 255 256 257 258 259 260 259 259 260 260 260 262 263 263 264 265 266 267
255 255 256 255 254 254 254 254 254 255 256 257 258 258 257 257 258 258 258 258 257 257 256 255 254 255 255 255 255 254 254 255 255 257 258 259 260 260 260 261 261 261 262 262 263 264 265 266 267
258 257 257 257 256 255 255 255 255 256 257 257 258 260 260 259 259 258 259 258 257 257 256 255 254 255 255 256 256 255 254 255 256 258 259 259 259 260 261 262 263 263 264 263 263 265 265 266 267
260 258 257 257 257 257 258 257 257 257 258 258 258 259 260 260 259 259 259 259 258 257 256 255 254 255 255 256 257 256 255 256 256 258 259 260 260 261 262 263 264 264 265 264 264 265 266 267 268
262 260 259 259 259 259 259 257 257 257 258 259 259 260 261 261 260 260 260 259 258 257 257 256 255 255 256 257 257 256 256 257 257 258 259 260 261 261 262 263 264 264 265 266 266 267 268 268 268
263 262 262 261 261 260 259 257 257 257 258 259 260 261 262 262 261 261 260 259 257 257 257 256 256 255 256 257 258 257 258 258 257 258 259 261 262 262 262 263 263 264 265 266 267 268 269 270 270
263 263 263 262 261 261 260 259 258 258 259 260 261 262 262 262 261 261 260 259 257 257 258 257 256 257 257 258 259 258 258 259 258 258 258 260 261 262 262 262 264 265 266 267 268 269 270 271 271
264 263 263 264 262 261 260 260 260 260 261 262 262 263 262 261 260 260 260 259 257 257 258 258 257 257 258 258 258 258 259 259 258 258 257 258 260 261 261 262 264 265 266 267 269 270 271 271 271
265 264 264 264 264 262 261 260 260 260 262 263 263 263 261 261 260 260 260 260 259 258 259 259 258 257 258 259 258 258 260 260 259 259 258 259 260 261 261 263 265 266 267 268 268 269 270 271 272
268 267 267 265 265 265 264 262 261 261 261 263 264 263 263 262 261 261 260 261 260 260 260 259 259 257 258 260 259 259 260 260 260 259 259 259 260 261 262 264 266 267 268 268 269 269 270 271 272
270 269 270 269 268 268 267 265 263 262 263 264 264 264 264 263 263 262 261 261 260 259 260 259 260 259 259 260 260 260 261 261 261 261 260 260 260 261 263 264 265 267 267 268 269 270 270 271 272
272 272 271 270 269 269 269 269 265 265 265 264 265 266 265 264 264 264 262 262 261 261 261 261 261 261 261 260 261 262 262 263 263 262 262 261 261 262 264 265 266 267 267 267 268 269 270 272 272
276 275 272 272 271 270 269 271 269 268 267 266 266 266 266 266 266 265 264 262 262 262 263 263 263 264 262 261 261 262 263 263 264 264 264 263 262 263 265 266 266 267 267 268 268 269 270 271 272
279 277 274 272 271 271 271 273 273 271 271 268 267 266 265 267 267 266 266 263 263 264 264 264 265 264 263 262 262 263 262 263 263 264 266 266 265 264 264 265 266 267 267 268 269 270 271 271 272
279 278 276 275 275 275 275 275 276 274 273 271 268 266 265 266 266 266 266 265 265 265 265 266 265 264 264 263 262 262 262 262 263 264 265 266 266 265 264 265 266 268 267 268 269 270 271 271 272
280 278 277 278 279 280 278 278 279 277 276 274 271 268 266 266 267 267 267 267 266 267 267 268 267 266 264 263 263 262 261 262 263 265 265 266 266 266 265 265 266 268 269 269 270 269 271 272 273
281 279 278 277 279 280 280 282 281 281 280 276 274 271 268 266 267 269 268 267 267 268 269 268 268 267 265 265 264 263 262 263 263 264 265 266 266 266 266 266 267 268 269 270 269 270 271 273 273
281 282 280 278 280 283 283 283 284 282 282 279 277 274 272 269 267 269 270 269 268 270 271 269 269 267 266 265 264 264 263 262 262 264 265 267 267 267 267 267 268 269 269 269 268 269 271 273 274
281 281 281 280 279 283 286 285 286 285 284 281 278 276 275 273 271 271 271 271 270 270 271 270 269 267 266 266 266 265 265 264 263 263 265 266 267 268 268 268 268 268 269 269 269 270 271 273 274
282 282 281 282 282 282 284 286 287 287 285 283 280 278 277 275 272 272 273 273 272 271 271 270 268 267 267 267 267 266 265 264 264 264 265 266 267 268 269 269 269 269 269 269 270 270 271 273 274
Height
5796 5797 5799 5800 5802 5804 5805 5808 5810 5811 5813 5814 5815 5816 5817 5819 5821 5824 5824 5824 5826 5827 5828 5829 5830 5831 5832 5833 5834 5835 5836 5837 5838 5838 5839 5840 5841 5841 5842 5842 5843 5843 5844 5844 5844 5845 5845 5845 5846
5790 5792 5794 5795 5796 5798 5802 5804 5804 5807 5809 5810 5811 5812 5813 5814 5816 5817 5818 5819 5821 5823 5824 5825 5826 5827 5828 5829 5830 5831 5832 5833 5834 5835 5836 5837 5837 5838 5839 5839 5840 5840 5841 5841 5842 5842 5842 5843 5843
5784 5786 5788 5789 5791 5794 5797 5798 5799 5801 5803 5805 5806 5807 5808 5810 5811 5812 5813 5814 5816 5818 5819 5820 5821 5823 5824 5825 5826 5827 5828 5829 5830 5831 5832 5833 5834 5834 5835 5836 5836 5837 5837 5838 5838 5839 5839 5840 5840
5778 5780 5782 5784 5786 5790 5791 5793 5794 5795 5797 5799 5801 5802 5803 5805 5806 5807 5808 5809 5811 5813 5814 5815 5816 5817 5819 5820 5822 5823 5824 5825 5826 5827 5828 5829 5830 5830 5831 5832 5832 5833 5833 5834 5835 5835 5836 5836 5837
5771 5773 5775 5777 5781 5783 5784 5786 5787 5789 5791 5793 5795 5796 5798 5799 5800 5801 5802 5804 5805 5807 5809 5810 5811 5812 5814 5815 5816 5818 5819 5820 5821 5822 5823 5824 5825 5825 5826 5827 5828 5828 5829 5830 5830 5831 5831 5832 5833
5765 5766 5769 5771 5774 5776 5778 5780 5781 5782 5784 5786 5788 5790 5792 5793 5794 5795 5796 5798 5799 5801 5803 5804 5805 5807 5808 5810 5811 5812 5814 5815 5816 5817 5817 5818 5819 5820 5821 5822 5822 5823 5824 5825 5826 5826 5827 5827 5828
5758 5760 5762 5765 5767 5769 5772 5774 5775 5776 5777 5780 5781 5783 5785 5787 5788 5789 5790 5791 5793 5794 5796 5797 5799 5801 5802 5804 5805 5806 5807 5808 5809 5810 5811 5812 5813 5814 5815 5816 5817 5818 5819 5820 5820 5821 5822 5822 5823
5750 5753 5755 5758 5760 5762 5765 5766 5768 5769 5770 5773 5774 5775 5778 5781 5781 5782 5783 5784 5786 5787 5789 5790 5792 5794 5796 5797 5799 5800 5801 5802 5803 5804 5804 5805 5806 5807 5808 5809 5811 5811 5813 5814 5814 5815 5816 5816 5817
5742 5746 5748 5751 5753 5755 5757 5759 5761 5762 5763 5765 5766 5768 5771 5773 5774 5775 5776 5777 5779 5780 5782 5783 5785 5787 5789 5790 5792 5793 5794 5795 5795 5796 5797 5798 5799 5800 5801 5802 5804 5805 5806 5807 5808 5809 5809 5810 5811
5736 5738 5742 5744 5745 5747 5749 5751 5753 5754 5756 5758 5759 5761 5762 5764 5766 5767 5768 5770 5772 5773 5775 5776 5778 5780 5782 5783 5784 5786 5787 5787 5788 5788 5789 5790 5791 5793 5794 5795 5796 5797 5799 5800 5800 5801 5802 5803 5804
5729 5732 5734 5735 5737 5738 5740 5743 5745 5746 5749 5750 5751 5753 5755 5756 5757 5759 5761 5762 5764 5766 5767 5769 5770 5772 5774 5775 5776 5778 5779 5779 5780 5781 5782 5783 5784 5785 5786 5787 5788 5790 5791 5792 5793 5794 5795 5796 5796
5723 5725 5726 5727 5729 5730 5732 5734 5736 5738 5741 5742 5742 5744 5746 5748 5749 5750 5752 5754 5756 5757 5759 5761 5762 5764 5766 5767 5768 5769 5770 5771 5772 5773 5774 5775 5776 5777 5778 5779 5780 5781 5782 5783 5785 5786 5787 5787 5788
5715 5717 5718 5719 5721 5722 5723 5725 5727 5730 5732 5733 5734 5735 5737 5738 5740 5742 5743 5745 5747 5749 5751 5752 5754 5756 5757 5758 5760 5760 5762 5763 5764 5765 5766 5767 5768 5769 5770 5771 5772 5772 5773 5774 5775 5777 5778 5779 5779
5708 5709 5710 5711 5712 5713 5715 5717 5719 5721 5723 5724 5725 5726 5728 5729 5730 5732 5734 5736 5738 5740 5742 5743 5745 5747 5748 5749 5751 5752 5753 5754 5755 5756 5757 5758 5759 5760 5761 5762 5763 5763 5764 5765 5766 5767 5768 5769 5770
5699 5701 5702 5703 5704 5705 5706 5709 5711 5713 5713 5715 5716 5717 5719 5720 5721 5723 5725 5727 5728 5730 5732 5734 5735 5737 5739 5740 5741 5742 5744 5745 5746 5747 5748 5749 5750 5751 5752 5753 5754 5754 5754 5755 5756 5757 5758 5759 5760
5691 5692 5694 5696 5696 5696 5699 5700 5703 5704 5705 5706 5707 5709 5709 5710 5712 5713 5715 5717 5718 5720 5722 5724 5725 5727 5728 5729 5730 5732 5733 5735 5737 5738 5739 5739 5740 5741 5742 5743 5744 5744 5745 5746 5746 5747 5748 5748 5749
5684 5684 5685 5688 5688 5688 5689 5692 5695 5695 5696 5698 5698 5700 5700 5701 5703 5704 5705 5707 5708 5710 5712 5713 5715 5716 5717 5719 5720 5721 5723 5724 5726 5727 5728 5729 5730 5731 5732 5733 5734 5734 5735 5736 5736 5737 5737 5738 5738
5677 5677 5678 5679 5680 5680 5681 5683 5685 5686 5687 5688 5689 5690 5691 5692 5693 5694 5696 5697 5699 5700 5702 5703 5704 5705 5706 5707 5709 5710 5711 5713 5714 5716 5717 5718 5719 5721 5721 5722 5723 5724 5725 5725 5726 5726 5726 5727 5727
5669 5669 5670 5671 5671 5671 5672 5674 5676 5677 5678 5679 5680 5681 5682 5683 5684 5685 5686 5688 5689 5690 5691 5693 5694 5695 5695 5696 5697 5699 5700 5702 5703 5704 5706 5707 5708 5710 5711 5711 5712 5713 5714 5714 5715 5715 5715 5715 5715
5662 5662 5662 5663 5663 5663 5664 5665 5667 5668 5669 5670 5671 5672 5672 5673 5674 5676 5677 5678 5679 5680 5681 5682 5683 5684 5684 5685 5686 5687 5689 5690 5691 5692 5694 5695 5697 5698 5699 5700 5701 5702 5702 5702 5703 5703 5703 5703 5702
5655 5655 5655 5655 5655 5655 5656 5657 5659 5660 5660 5661 5662 5663 5663 5664 5665 5666 5666 5668 5669 5670 5670 5671 5672 5673 5674 5674 5675 5676 5677 5678 5679 5681 5682 5683 5684 5686 5687 5688 5689 5689 5690 5690 5690 5691 5691 5691 5690
5648 5648 5647 5647 5647 5648 5648 5648 5652 5652 5652 5653 5654 5654 5654 5655 5655 5656 5657 5658 5659 5660 5660 5661 5661 5662 5662 5663 5664 5665 5666 5667 5668 5669 5670 5671 5672 5673 5674 5675 5676 5677 5677 5678 5678 5678 5678 5678 5678
5642 5641 5641 5640 5639 5640 5641 5640 5644 5643 5644 5644 5645 5645 5645 5646 5646 5646 5647 5648 5649 5649 5650 5650 5651 5651 5651 5651 5652 5653 5654 5656 5657 5658 5659 5659 5660 5661 5662 5663 5664 5664 5665 5665 5666 5666 5666 5666 5665
5635 5635 5634 5632 5632 5633 5635 5633 5634 5635 5636 5636 5636 5636 5636 5637 5637 5637 5637 5638 5639 5639 5639 5640 5640 5640 5640 5641 5642 5642 5643 5644 5646 5647 5648 5648 5649 5650 5651 5651 5652 5652 5653 5653 5654 5654 5654 5653 5653
5629 5629 5627 5626 5625 5626 5627 5625 5627 5628 5628 5627 5628 5628 5628 5628 5628 5628 5628 5629 5629 5629 5630 5630 5629 5630 5630 5630 5631 5631 5632 5633 5635 5636 5637 5637 5638 5638 5639 5639 5640 5640 5641 5641 5642 5642 5642 5641 5640
5623 5622 5622 5620 5619 5620 5619 5618 5621 5620 5620 5619 5619 5619 5619 5619 5619 5619 5619 5619 5619 5619 5620 5620 5619 5619 5620 5620 5620 5621 5622 5623 5624 5625 5626 5626 5627 5627 5627 5628 5628 5629 5629 5630 5630 5630 5630 5629 5628
5616 5616 5616 5615 5613 5612 5612 5613 5613 5612 5611 5611 5611 5610 5610 5610 5610 5610 5610 5610 5610 5610 5610 5610 5610 5609 5610 5610 5610 5611 5612 5613 5614 5614 5615 5616 5616 5616 5616 5616 5617 5618 5618 5618 5618 5618 5618 5618 5617
5611 5610 5610 5608 5607 5606 5606 5606 5606 5605 5604 5603 5602 5602 5601 5602 5602 5601 5601 5601 5601 5600 5600 5600 5600 5600 5600 5600 5600 5601 5601 5602 5603 5604 5605 5605 5606 5605 5606 5606 5606 5607 5607 5606 5607 5607 5607 5607 5606
5606 5605 5604 5603 5602 5600 5599 5602 5599 5598 5597 5596 5595 5594 5593 5593 5593 5592 5592 5592 5592 5591 5591 5590 5590 5590 5590 5590 5591 5591 5592 5592 5593 5594 5595 5595 5595 5595 5595 5596 5596 5596 5596 5596 5596 5596 5596 5596 5595
5600 5599 5598 5598 5596 5595 5593 5597 5593 5591 5590 5588 5587 5586 5585 5585 5584 5584 5584 5583 5583 5583 5582 5581 5581 5581 5581 5581 5582 5582 5582 5583 5584 5584 5585 5585 5586 5586 5585 5586 5586 5586 5586 5586 5586 5585 5585 5584 5584